This is the latest recevied weather packets stored in our database for station/object KF0TNT. If no packets are shown the sender has not sent any weather packets the latest 10 day(s).
| Time | Temp. | Humidity | Pressure | Rain* | Wind** | Luminosity | Snow |
|---|---|---|---|---|---|---|---|
| 1777280435 | 3.33° C | 58% | 1008.1 hPa | 0 mm | - | 0 W/m² | - |
| 1777280132 | 3.33° C | 58% | 1008.2 hPa | 0 mm | - | 0 W/m² | - |
| 1777279828 | 3.89° C | 57% | 1008.2 hPa | 0 mm | - | 0 W/m² | - |
| 1777279526 | 3.89° C | 55% | 1008.3 hPa | 0 mm | - | 0 W/m² | - |
| 1777279223 | 3.89° C | 56% | 1007.9 hPa | 0 mm | - | 0 W/m² | - |
| 1777278921 | 2.78° C | 59% | 1008.4 hPa | 0 mm | - | 0 W/m² | - |
| 1777278616 | 2.78° C | 60% | 1008.2 hPa | 0 mm | - | 0 W/m² | - |
| 1777278313 | 3.33° C | 59% | 1008.2 hPa | 0 mm | - | 0 W/m² | - |
| 1777278009 | 3.33° C | 58% | 1008.2 hPa | 0 mm | - | 0 W/m² | - |
| 1777277707 | 3.89° C | 57% | 1008.4 hPa | 0 mm | - | 0 W/m² | - |
| 1777277402 | 4.44° C | 55% | 1008.2 hPa | 0 mm | - | 0 W/m² | - |
| 1777277097 | 4.44° C | 55% | 1008.3 hPa | 0 mm | - | 0 W/m² | - |
| 1777276793 | 5° C | 54% | 1008.3 hPa | 0 mm | - | 0 W/m² | - |
| 1777276490 | 5° C | 53% | 1008.7 hPa | 0 mm | - | 0 W/m² | - |
| 1777276185 | 5° C | 53% | 1008.8 hPa | 0 mm | - | 0 W/m² | - |
| 1777275883 | 5.56° C | 52% | 1008.7 hPa | 0 mm | - | 0 W/m² | - |
| 1777275581 | 5.56° C | 51% | 1008.9 hPa | 0 mm | - | 0 W/m² | - |
| 1777275278 | 5.56° C | 50% | 1008.7 hPa | 0 mm | - | 0 W/m² | - |
| 1777274972 | 5.56° C | 50% | 1008.8 hPa | 0 mm | - | 0 W/m² | - |
| 1777274670 | 6.11° C | 50% | 1008.8 hPa | 0 mm | - | 0 W/m² | - |
| 1777274367 | 6.11° C | 49% | 1008.7 hPa | 0 mm | - | 0 W/m² | - |
| 1777274067 | 6.11° C | 50% | 1009.1 hPa | 0 mm | - | 0 W/m² | - |
| 1777273764 | 6.11° C | 49% | 1008.7 hPa | 0 mm | - | 0 W/m² | - |
| 1777273462 | 6.11° C | 49% | 1009.1 hPa | 0 mm | - | 0 W/m² | - |
| 1777273160 | 6.11° C | 50% | 1008.8 hPa | 0 mm | - | 0 W/m² | - |
* Rain latest hour (hover to see other rain measurements)
** Current wind speed in m/s (hover to see current wind gust speed)